CAPE
0 0 0 1001 1457 1586 1663 1690 1400 1035 1106 921 682 529 423 261 229 219 110 88 0 0 0 0 0 0 1 1 0 0 0 0
0 0 0 0 1 1099 1754 1749 1558 1354 1408 1137 774 800 527 422 369 322 145 94 0 0 0 0 0 0 0 0 1 1 2 0
0 0 0 0 0 0 211 1667 1443 1541 1523 1294 1043 1070 858 740 542 353 273 103 19 29 15 0 0 1 1 1 1 1 0 1
0 0 0 0 0 0 0 868 1389 1481 1458 1193 335 377 264 575 539 423 341 164 45 54 26 18 0 0 2 6 5 0 1 1
0 0 0 0 0 0 0 6 542 1299 1468 1362 1124 1182 1028 1006 996 748 469 151 222 99 29 22 7 0 18 24 11 1 5 3
0 0 0 0 0 0 0 0 0 0 0 1511 1293 1185 945 405 455 641 634 350 248 206 153 55 31 8 46 32 16 3 6 14
1 0 0 0 0 0 0 0 0 0 0 0 606 1307 977 429 412 534 489 371 172 181 158 101 62 58 47 34 18 2 5 11
2 2 2 0 0 0 0 0 0 0 0 0 0 0 946 640 475 509 458 397 207 151 108 76 79 80 54 31 0 5 19 9
11 4 2 2 1 1 0 0 0 0 0 0 0 0 0 519 374 398 211 271 218 179 132 86 31 25 23 16 17 8 1 7
12 8 7 4 3 2 2 0 0 0 0 1 1 1 0 0 379 145 80 52 58 8 61 36 9 7 2 1 0 0 0 1
9 9 8 7 5 5 5 2 1 0 0 2 2 2 2 0 0 128 105 40 5 0 8 20 19 3 0 0 0 0 1 1
8 5 3 3 6 5 6 3 1 2 1 2 3 2 2 1 0 410 124 30 1 0 0 1 1 1 0 0 0 0 0 1
1 3 3 0 1 3 3 3 2 3 4 3 4 3 2 2 0 1 81 25 1 0 0 0 0 0 0 0 0 0 0 0
1 0 2 2 2 2 2 3 4 4 4 4 4 4 3 3 2 2 1 4 5 1 1 0 0 0 0 0 0 0 0 3
3 1 3 2 2 2 2 3 3 4 4 5 5 5 5 4 3 2 1 0 3 1 1 1 1 0 0 0 0 0 1 2
7 7 5 5 2 2 3 3 2 2 3 3 5 5 5 3 4 4 1 1 1 1 2 0 0 1 0 1 0 0 1 1
6 8 8 7 6 2 4 4 3 2 1 2 3 2 2 3 3 3 2 1 0 1 1 2 5 2 2 0 0 1 1 0
6 6 8 9 9 3 4 4 3 3 2 1 2 3 2 2 2 2 2 2 1 1 1 0 1 2 1 0 0 0 0 1
3 5 3 3 6 0 0 3 3 3 4 3 2 2 2 2 2 2 2 1 0 1 0 1 0 1 2 1 0 0 0 0
CIN
0 0 0 -222 -255 -242 -263 -283 -318 -340 -270 -243 -275 -323 -356 -429 -384 -358 -416 -408 0 0 0 0 0 0 0 0 0 0 0 0
0 0 0 0 -2 -229 -202 -240 -257 -241 -196 -216 -274 -289 -375 -357 -382 -334 -372 -391 0 0 0 0 0 0 0 0 -1 -1 0 0
0 0 0 0 0 0 -289 -193 -228 -200 -200 -216 -203 -225 -250 -290 -319 -361 -316 -361 -396 -346 -347 0 0 0 0 -1 0 0 0 0
0 0 0 0 0 0 0 -322 -242 -193 -179 -189 -346 -319 -345 -261 -292 -344 -351 -348 -374 -343 -312 -314 0 0 -42 -149 -93 0 0 0
0 0 0 0 0 0 0 -32 -371 -172 -138 -139 -172 -168 -200 -257 -242 -261 -296 -369 -288 -277 -285 -272 -228 0 -206 -179 -180 -13 -40 -38
0 0 0 0 0 0 0 0 0 0 0 -121 -138 -162 -200 -344 -326 -241 -230 -263 -255 -243 -226 -232 -213 -215 -181 -171 -179 -40 -37 -22
0 0 0 0 0 0 0 0 0 0 0 0 -136 -132 -199 -299 -299 -248 -251 -268 -297 -270 -227 -193 -177 -163 -165 -167 -142 -45 -29 -24
0 0 0 0 0 0 0 0 0 0 0 0 0 0 -175 -262 -292 -281 -295 -284 -296 -325 -264 -248 -196 -171 -159 -153 0 -62 -105 -15
0 0 0 0 0 0 0 0 0 0 0 0 0 0 0 -266 -311 -309 -343 -333 -326 -291 -278 -257 -267 -219 -204 -183 -134 -125 -29 -21
0 0 0 0 0 0 0 0 0 0 0 0 0 0 0 0 -291 -352 -363 -384 -401 -471 -312 -302 -294 -247 -57 -6 0 0 0 -25
0 0 0 0 0 0 0 0 0 0 0 0 0 0 0 0 0 -319 -327 -379 -311 0 -373 -289 -234 -235 0 0 0 0 0 -9
0 0 0 0 0 0 0 0 0 0 0 0 0 0 0 0 0 -156 -254 -322 -139 0 0 0 -87 0 0 0 0 0 0 0
0 0 0 0 0 0 0 0 0 0 0 0 0 0 0 0 0 0 -213 -269 -76 -19 0 0 0 0 0 0 0 0 0 0
0 0 0 0 0 0 0 0 0 0 0 0 0 0 0 0 0 0 0 -80 -260 0 0 0 0 0 0 0 0 0 -4 -2
0 0 0 0 0 0 0 0 0 0 0 0 0 0 0 0 0 0 0 0 0 0 0 0 0 0 0 0 0 0 0 0
0 0 0 0 0 0 0 0 0 0 0 0 0 0 0 0 0 0 0 0 0 0 0 0 0 0 0 0 0 0 0 0
0 0 0 0 0 0 0 0 0 0 0 0 0 0 0 0 0 0 0 0 0 0 0 0 0 0 0 0 0 -31 0 0
0 0 0 0 0 0 0 0 0 0 0 0 0 0 0 0 0 0 0 0 0 0 0 0 0 0 0 0 0 0 0 0
0 0 0 0 0 0 0 0 0 0 0 0 0 0 0 0 0 0 0 0 0 0 0 0 0 0 0 0 0 0 0 0
Wind_Speed
15 11 15 18 16 16 16 15 15 14 9 7 6 7 7 8 8 7 10 8 10 8 6 8 8 7 6 6 7 5 3 4
7 8 6 3 5 8 14 15 14 12 10 10 10 13 11 9 8 10 10 9 10 9 6 7 9 9 9 9 7 7 4 5
9 10 9 11 7 3 4 11 11 12 11 11 6 9 8 7 7 8 9 10 11 10 9 8 10 7 9 10 9 4 4 7
8 11 11 10 11 9 7 8 13 13 12 8 3 5 4 3 8 9 10 11 10 10 11 9 9 9 8 9 10 10 6 4
11 11 13 13 12 11 10 10 4 7 11 10 13 9 8 9 7 7 9 10 12 11 11 10 10 9 10 10 9 10 7 7
12 12 11 11 12 12 10 9 10 10 8 8 10 9 7 4 4 10 10 10 11 12 13 12 11 9 10 11 11 11 9 7
13 12 11 12 12 14 12 11 10 11 8 7 4 14 9 7 9 10 10 8 10 13 13 12 12 11 10 10 10 12 10 9
13 14 14 14 14 14 12 13 12 11 10 9 7 6 8 12 11 10 12 10 9 12 14 13 11 12 11 11 10 10 11 10
13 13 12 13 14 14 13 13 13 13 11 10 8 6 4 5 9 8 9 9 11 13 13 12 15 13 12 12 9 9 10 9
13 13 13 13 14 14 14 13 13 12 11 9 9 8 8 8 7 7 6 7 7 9 12 11 13 13 12 12 9 10 9 9
12 12 14 15 15 13 13 13 13 12 12 9 9 9 8 7 8 9 10 6 7 9 12 12 12 12 12 12 9 8 9 7
11 13 13 14 15 15 14 16 16 16 15 13 12 11 12 8 8 8 9 7 9 10 11 11 13 13 11 11 9 8 8 7
14 16 16 16 17 14 15 16 17 17 14 13 13 13 13 12 10 13 6 9 9 11 11 11 12 12 12 12 11 9 9 9
16 15 18 15 14 17 17 18 17 16 15 15 14 14 14 13 13 12 13 6 8 8 9 11 11 11 11 10 9 9 9 10
27 24 18 16 18 14 19 17 16 15 15 16 16 15 14 12 12 13 13 13 10 5 8 9 10 10 10 10 10 9 9 9
19 17 17 18 18 16 15 16 16 15 15 16 15 14 14 14 14 13 13 14 14 15 9 6 8 7 3 7 8 8 9 8
18 16 16 16 16 14 14 16 16 15 15 16 15 16 16 17 16 16 13 14 15 15 15 14 15 9 16 13 8 9 8 7
14 14 14 14 15 15 15 14 14 15 15 15 16 16 16 16 15 15 16 14 13 13 13 14 14 14 22 20 14 2 4 5
13 11 13 15 14 15 13 13 14 14 14 15 16 15 16 16 15 15 15 13 13 12 12 11 13 12 24 23 15 9 9 9
Wind_Direction
258 230 215 211 198 190 190 190 189 182 170 177 175 177 180 168 179 189 181 179 174 170 170 168 172 174 176 170 186 183 173 177
15 21 3 189 66 222 192 180 180 172 176 184 188 198 183 190 180 179 180 179 178 179 176 168 179 185 187 185 189 190 193 158
49 24 25 36 27 19 178 181 174 182 188 195 201 192 205 190 179 164 177 180 181 183 181 183 188 186 189 189 188 170 178 167
45 42 15 26 22 4 353 184 174 188 190 167 119 116 94 144 188 185 188 181 181 185 185 185 184 191 194 190 191 191 181 173
30 32 20 19 12 3 356 46 91 170 176 177 186 191 187 202 197 192 182 173 184 187 187 189 189 192 196 196 192 194 190 183
27 23 22 19 16 12 4 22 48 30 22 198 185 187 198 144 156 182 181 185 189 193 190 193 193 195 199 195 190 195 201 200
31 24 18 27 20 23 9 11 35 32 17 1 250 191 185 168 173 184 193 192 195 201 198 200 202 200 198 197 200 201 202 208
31 27 23 31 24 24 11 6 30 23 17 359 344 335 213 191 189 194 191 188 198 199 194 199 202 198 200 199 196 200 201 205
35 33 33 31 25 24 14 9 21 17 9 345 331 322 289 238 205 195 200 197 202 200 195 196 208 201 197 197 203 204 204 208
35 34 33 32 29 25 13 13 22 15 5 345 334 327 295 269 217 203 197 203 192 181 192 194 202 205 202 194 200 198 197 205
43 35 33 29 25 19 17 17 19 16 11 3 350 327 315 259 271 210 208 207 186 178 190 201 204 208 199 195 197 192 195 204
47 43 39 36 29 13 12 17 12 12 7 4 1 353 350 336 255 242 208 188 189 196 202 200 201 206 190 192 191 178 199 210
46 36 25 24 27 11 18 16 17 9 4 8 7 1 2 5 0 356 245 202 198 206 207 204 200 199 194 190 188 185 202 221
45 48 34 22 23 17 16 19 14 9 5 10 11 9 10 4 3 356 2 279 198 200 202 203 200 197 192 183 185 190 205 218
26 23 12 16 21 11 18 9 12 8 15 15 16 11 9 9 8 10 10 10 1 218 206 215 215 200 187 186 185 192 204 219
25 24 16 16 13 11 7 9 10 7 15 19 15 15 14 16 17 18 23 30 17 9 352 250 205 205 176 187 195 197 202 213
22 17 21 17 17 7 8 7 5 8 17 16 10 16 19 19 19 19 25 34 36 27 20 32 16 25 353 353 250 209 195 199
16 15 18 16 17 13 15 7 2 11 15 15 14 12 19 22 22 19 24 27 29 39 30 38 31 8 11 23 312 196 133 84
11 11 14 11 11 17 13 10 12 14 16 14 14 15 19 18 23 23 23 26 28 30 32 24 53 27 13 28 8 28 62 58